Regional Weather Roundup
Issued by NWS

Home | Current Version | Previous Version | Graphics & Text | Print | Product List | Glossary On
Versions: 1 2 3 4 5 6 7 8 9 10 11 12 13 14 15 16 17 18 19 20 21 22 23 24 25 26 27 28 29 30 31 32 33 34 35 36 37 38 39 40 41 42 43 44 45 46 47 48 49 50
000
ASUS43 KLOT 071312
RWRIL

ILLINOIS REGIONAL WEATHER ROUNDUP
NATIONAL WEATHER SERVICE CHICAGO/ROMEOVILLE IL
700 AM CST WED DEC 07 2016

NOTE: "FAIR" INDICATES FEW OR NO CLOUDS BELOW 12,000 FEET WITH NO
SIGNIFICANT WEATHER AND/OR OBSTRUCTIONS TO VISIBILITY.

* THESE STATIONS ARE NOT UNDER NWS QUALITY CONTROL. THEY ALSO MAY NOT
  REPORT WEATHER SUCH AS PRECIPITATION OR FOG.

ILZ001-002-007-009-015-016-024-071400-
NORTHWEST ILLINOIS

CITY           SKY/WX    TMP DP  RH WIND       PRES   REMARKS
MOLINE         CLOUDY    24  15  68 W10       30.13R WCI  14
STERLING*      MOCLDY    22  17  81 W18       30.11R WCI   7
SAVANNA*       PTCLDY    22  15  75 W13       30.11S WCI   9
$$

ILZ003-004-008-010-011-017-018-071400-
NORTH CENTRAL ILLINOIS

CITY           SKY/WX    TMP DP  RH WIND       PRES   REMARKS
ROCKFORD       CLOUDY    22  14  71 W12G21    30.09R WCI  10
FREEPORT*      MOCLDY    20  14  79 W9        30.09R WCI   9
ROCHELLE*      CLOUDY    22  17  79 W16       30.09S WCI   8
DE KALB*       CLOUDY    22  17  79 W13G21    30.07R WCI  10
$$

ILZ005-006-012>014-019>023-071400-
NORTHEAST ILLINOIS

CITY           SKY/WX    TMP DP  RH WIND       PRES   REMARKS
CHICAGO-OHARE  CLOUDY    25  17  72 W13G22    30.06R WCI  14
CHICAGO-MIDWAY CLOUDY    27  17  66 W15       30.07R WCI  15
AURORA         CLOUDY    25  18  74 W15       30.08R WCI  13
LANSING*       MOCLDY    27  21  79 W9        30.08S WCI  17
JOLIET*        MOCLDY    28  21  78 W10G18    30.10R WCI  18
WAUKEGAN       CLOUDY    24  16  71 VRB6      30.03R WCI  17
DUPAGE AIRPORT MOCLDY    24  17  74 W16       30.06R WCI  11
KANKAKEE*      CLOUDY    28  21  76 W10       30.10S WCI  18
WHEELING       MOCLDY    24  16  71 W10G18    30.06R WCI  14
MORRIS*        CLOUDY    26  20  77 W15       30.09R WCI  14
ROMEOVILLE*    CLOUDY    25  22  86 W15       30.09R WCI  13
NORTHERLY ISL    N/A     27  18  69 SW13        N/A  WCI  16
$$

LMZ740>746-071400-
SOUTHERN LAKE MICHIGAN

STATION/POSITION SKY/WX   TEMP    WIND        PRES    VSBY  WAVE
                          AIR SEA DIR/SP/G                  HT/PER
                          (F)     (DEG/KT/KT) (MB)    (MI)  (FT/S)
HARRISON CRIB              28     260/ 17/ 19   N/A
BURNHAM HARBOR             27     280/  8/ 15   N/A
CALUMET HARBOR             27     230/  7/ 10 1017.5R
BURNS HARBOR               29     230/ 12/ 16 1018.6S
MICHIGAN CITY              29     190/ 15/ 17   N/A
$$

ILZ025>027-034>036-040-047-049-050-058-095>099-071400-
WEST-CENTRAL ILLINOIS

CITY           SKY/WX    TMP DP  RH WIND       PRES   REMARKS
QUINCY         MOCLDY    28  17  63 NW12      30.16R WCI  18
GALESBURG*     CLOUDY    25  18  74 NW8       30.13S WCI  16
MACOMB*        CLOUDY    27  19  70 W9        30.17S WCI  18
JACKSONVILLE*  MOCLDY    27  19  73 W5        30.17R WCI  21
PITTSFIELD*    CLOUDY    28  19  67 CALM      30.18R
$$

ILZ028>032-037-038-041>044-048-051>054-059>061-071400-
CENTRAL ILLINOIS

CITY           SKY/WX    TMP DP  RH WIND       PRES   REMARKS
PONTIAC        CLOUDY    28  23  79 W14       30.12S WCI  17
BLOOMINGTON    MOCLDY    27  18  69 W9        30.10F WCI  18
DECATUR        CLOUDY    28  18  66 SW6       30.15F WCI  22
PEORIA         CLOUDY    28  17  63 NW8       30.13F WCI  20
LACON*         PTCLDY    26  17  69 W9        30.12S WCI  17
LINCOLN*       PTCLDY    28  20  71 CALM      30.14R
SPRINGFIELD    CLOUDY    30  19  63 W3        30.15S
TAYLORVILLE    PTCLDY    27  22  81 CALM      30.17R
$$

ILZ033-039-045-046-055>057-062-063-071400-
EAST-CENTRAL ILLINOIS

CITY           SKY/WX    TMP DP  RH WIND       PRES   REMARKS
CHAMPAIGN      CLOUDY    28  20  71 W5        30.13F WCI  23
RANTOUL*       CLOUDY    29  22  75 W7        30.11F WCI  22
MATTOON        PTCLDY    26  19  74 W7        30.15S WCI  18
PARIS*         PTCLDY    28  24  82 W7        30.17S WCI  21
$$

ILZ079-100>102-071400-
SOUTHWEST ILLINOIS

CITY           SKY/WX    TMP DP  RH WIND       PRES   REMARKS
ALTON          MOCLDY    28  21  74 CALM      30.19S
BELLEVILLE     MOCLDY    29  22  74 CALM      30.19R
CAHOKIA*       CLOUDY    31  19  61 SW3       30.20R
SPARTA*        PTCLDY    28  21  75 CALM      30.21S
$$

ILZ064>066-069>071-074>076-080>082-084>086-088>090-092>094-071400-
SOUTH-CENTRAL ILLINOIS

CITY           SKY/WX    TMP DP  RH WIND       PRES   REMARKS
CARBONDALE     CLEAR     26  25  96 CALM      30.22R
CAIRO*         CLOUDY    33  24  70 N5        30.23R WCI  28
EFFINGHAM*     PTCLDY    26  24  89 S3        30.20S
MARION         CLEAR     28  28 100 CALM      30.23R
CENTRALIA*     CLEAR     26  24  91 CALM      30.19S
SALEM*         MOCLDY    27  23  83 CALM      30.19S
METROPOLIS*    MOCLDY    31  26  81 CALM      30.23R
$$

ILZ067-068-072-073-078-083-087-091-071400-
SOUTHEAST ILLINOIS

CITY           SKY/WX    TMP DP  RH WIND       PRES   REMARKS
LAWRENCEVILLE  PTCLDY    26  22  84 CALM      30.21R
FLORA*         PTCLDY    26  22  86 CALM      30.20F
FAIRFIELD*     PTCLDY    28  25  89 CALM      30.20S
HARRISBURG*    CLEAR     29  26  91 CALM      30.23R
ROBINSON*      PTCLDY    26  20  80 W5        30.21S WCI  20
CARMI*         CLEAR     30  27  90 CALM      30.21R
$$

ABBREVIATIONS USED IN REMARKS
   TC - TEMPERATURE IN CELSIUS
  WCI - WIND CHILL INDEX
   HX - HEAT INDEX
  VSB - VISIBILITY
$$




USA.gov is the U.S. government's official web portal to all federal, state and local government web resources and services.